Home > Weather > Hollywood > Past weeks

Flag for U.S.A. Weather for the Past 2 Weeks in Hollywood, California, U.S.A.

Now
78 °F

Sunny.


Feels Like: 77 °F
Forecast: 58 / 84 °F
Wind: No wind

Location: Bob Hope Airport

Current Time: Feb 8, 2016 at 10:59:29 AM

Latest Report: Feb 8, 2016 at 9:53 AM


Visibility: 10 mi

Pressure: 30.12 "Hg

Humidity: 16%

Dew point: 29 °F

Location of HollywoodLocation

Historic Weather in Hollywood — Graph

°F

Hollywood Temperature Yesterday

Maximum temperature yesterday: 85 °F (at 2:53 PM)
Minimum temperature yesterday: 46 °F (at 5:53 AM)
Average temperature yesterday: 67 °F

High & Low Weather Summary for the Past Weeks

 TemperatureHumidityPressure
High85 °F (Feb 7, 2:53 PM)94% (Jan 31, 7:59 AM)30.34 "Hg (Jan 31, 7:59 AM)
Low39 °F (Feb 2, 5:53 AM)7% (Feb 7, 2:53 PM)29.54 "Hg (Jan 31, 1:53 PM)
Average57 °F42%30.10 "Hg
* Reported Jan 24 9:53 AM — Feb 8 9:53 AM, Hollywood, Weather by CustomWeather, © 2016

Note: Actual official high and low records may vary slightly from our data, if they occured in-between our weather recording intervals... More about our weather records

Advertising

Hollywood Weather History for the Previous 24 Hours

 ConditionsComfort  
Time TempWeatherWind HumidityBarometerVisibility
9:53 AM
Mon, Feb 8
78 °FSunny.No wind16%30.12 "Hg10 mi
8:53 AM70 °FSunny.No wind22%30.12 "Hg10 mi
7:53 AM65 °FSunny.No wind23%30.10 "Hg10 mi
6:53 AM65 °FSunny.No wind20%30.09 "Hg10 mi
5:53 AM63 °FClear.6 mph22%30.08 "Hg10 mi
4:53 AM72 °FClear.No wind13%30.07 "Hg10 mi
3:53 AM67 °FClear.No wind17%30.07 "Hg10 mi
2:53 AM62 °FClear.No wind22%30.09 "Hg10 mi
1:53 AM74 °FClear.9 mph12%30.09 "Hg10 mi
12:53 AM71 °FClear.5 mph14%30.09 "Hg10 mi
11:53 PM
Sun, Feb 7
74 °FClear.6 mph12%30.09 "Hg10 mi
10:53 PM66 °FClear.No wind18%30.11 "Hg10 mi
9:53 PM65 °FClear.No wind20%30.10 "Hg10 mi
8:53 PM76 °FClear.3 mph9%30.09 "Hg10 mi
7:53 PM77 °FClear.7 mph9%30.08 "Hg10 mi
6:53 PM77 °FClear.10 mph8%30.08 "Hg10 mi
5:53 PM77 °FClear.13 mph10%30.07 "Hg10 mi
4:53 PM82 °FSunny.6 mph9%30.06 "Hg10 mi
3:53 PM83 °FSunny.10 mph7%30.05 "Hg10 mi
2:53 PM85 °FSunny.6 mph7%30.04 "Hg10 mi
1:53 PM82 °FSunny.No wind10%30.06 "Hg10 mi
12:53 PM80 °FSunny.3 mph12%30.07 "Hg10 mi
11:53 AM77 °FSunny.6 mph14%30.10 "Hg10 mi
10:53 AM73 °FSunny.6 mph15%30.12 "Hg10 mi
Weather by CustomWeather, © 2016

See weather overviewHow to use our weather pages